STARLINK-36766, 68069

Orbit data source: Space-Track

STARLINK-36766, 68069 is a payload satellite owned by SpaceX/Seattle (US) in LEO that was launched on Wed, 04 Mar 2026 UTC via an FALCON 9 launch vehicle from the Air Force Eastern Test Range (AFETR). Payload-class satellites include a variety of spacecraft equipped with specific instruments for various scientific and technological missions. These include communications satellites like Starlink; space stations such as the ISS; scientific satellites like the Hubble; Earth observation satellites from companies like Planet Labs, Umbra, and HawkEye 360; GPS; miniature CubeSats for education and research; and military/defense satellites.

Loading next visibility...
Identifier
68069, 2026-042A
Orbit
LEO
Country
Flag of USUS
Related business
Manufacturer
SpaceX/Seattle
Mission
Operational spacecraft
Bus & Motor
STARLINK V2MO, Unknown motor
Mass
575 kg wet, ~530 kg dry
Launch date (UTC)
2026-03-04 (1 month ago)
Launch vehicle
FALCON 9
Launch site
Air Force Eastern Test Range (AFETR)
Object type
Payload
Rocket body
Debris
Shape & HBR
Unknown shape, 17.7 m
Radar Cross Section
RCS unknown

Expand to show TLE details & history
Last TLE update: 8 hours ago

TLE from 8 hours ago
0 STARLINK-36766
1 68069U 26042A   26102.25098368  .00220374  00000-0  13941-2 0  9993
2 68069  53.1595  27.1440 0000664 113.7567 246.3523 15.75410842  7383
Epoch: 2026-04-12T06:01Z
TLE epoch observation values (Epoch: 2026-04-12T06:01:24.989Z)
Latitude
-0.00005°
Longitude
96.33122°
Altitude
344.559 km
Speed
7.703 km/s
True Right ascension
01h 48m 34s
True Declination
0° 00' 00"
Sunlit
Object was in daylight at epoch
Visualization orbit readout
Latitude
Unknown
Longitude
Unknown
Altitude
Unknown
Speed
Unknown
Apparent Right ascension
Unknown
Apparent Declination
Unknown
Sunlit
N/A
Visualization observer readout
Local Sidereal Time
20:28:06
Azimuth
Unknown
Elevation
Unknown
Doppler factor
Unknown
Orbital elements
Apogee altitude
344.17 km
Perigee altitude
343.277 km
Semi-major axis
6,721.861 km
Eccentricity
0.00007
Inclination
53.1595°
RAAN
27.144°
Arg. of periapsis
113.7567°
True anomaly
246.34533°
Mean anomaly
246.3523°
Eccentric anomaly
246.34882°
Mean motion
3.9383 °/min
Orbital period
91.41 mins
BSTAR
0.0013941
Loading maneuver chart data...
Computing Atmospheric mass density...
Loading historical data...
Loading historical data...
Loading historical data...
Loading historical data...
Loading historical data...
Loading historical data...
Loading historical data...

Documentation

Showing up to 5 results
|